Location: ??????????
(54.8537°N, 38.8755°E)
Time: 21:52:56
(UTC+00:00)

Vanguard 2 Rocket - Pass Details

Date: 13 September 2024
Orbit: 553 x 3298 km, 32.9° (Epoch: 09 October)

Event Time Altitude Azimuth Distance (km) Brightness Sun altitude
Rises 21:19:14 0° 177° (S) 4,692 - -31.8°
Reaches altitude 10° 21:26:23 10° 143° (SE) 4,489 - -31.8°
Maximum altitude 21:28:38 11° 132° (SE) 4,659 - -31.8°
Exits shadow 21:30:39 10° 124° (ESE) 4,885 10.3 -31.8°
Drops below altitude 10° 21:31:05 10° 122° (ESE) 4,941 10.4 -31.8°
Sets 21:41:22 0° 93° (E) 6,738 11.4 -31.6°
